User: anonymous   Login
Location: Unspecified
(0.0000°N, 0.0000°E)
Time: 11:55:35
(UTC+00:00)
Language:

Cosmos 2499 - Orbit

View from above orbital plane
View from above orbital plane
View from above satellite
View from above satellite

Ground track
Ground track

The orbit data is extracted from the following two-line orbital elements,

1 39765U 14028E   18322.76906989 +.00000038 +00000-0 +10000-3 0  9990
2 39765 082.4382 320.7202 0230168 018.7695 342.1714 12.83340470210389
Epoch (UTC): 18 November 2018 18:27:27
Eccentricity: 0.0230168
inclination: 82.4382°
perigee height: 1150 km
apogee height: 1505 km
right ascension of ascending node: 320.7202°
argument of perigee: 18.7695°
revolutions per day: 12.83340470
mean anomaly at epoch: 342.1714°
orbit number at epoch: 21038

The dashed part of the orbit path shows where the satellite is in the earth's shadow,  

DLR